Hourly Weather Maturín

Today, 12 July, Sunday

Time Temperature Precipitation Wind Pressure Humidity
00:00 +25°C° 0 mm 1 mps 755 mmHg 96%
01:00 +25°C° 0 mm 1 mps 755 mmHg 97%
02:00 +25°C° 0 mm 1 mps 755 mmHg 97%
03:00 +25°C° 0 mm 1 mps 755 mmHg 97%
04:00 +25°C° 0 mm 1 mps 755 mmHg 97%
05:00 +25°C° 0 mm 1 mps 755 mmHg 97%
06:00 +26°C° 0 mm 1 mps 755 mmHg 94%
07:00 +27°C° 0 mm 1 mps 756 mmHg 91%
08:00 +28°C° 0 mm 1 mps 756 mmHg 87%
09:00 +29°C° 0.6 mm 2 mps 756 mmHg 83%
10:00 +30°C° 0.6 mm 2 mps 756 mmHg 79%
11:00 +31°C° 0.6 mm 2 mps 756 mmHg 74%
12:00 +31°C° 0.5 mm 3 mps 756 mmHg 72%
13:00 +33°C° 0.5 mm 3 mps 755 mmHg 70%
14:00 +33°C° 0.5 mm 3 mps 755 mmHg 68%
15:00 +33°C° 0.2 mm 3 mps 754 mmHg 69%
16:00 +33°C° 0.2 mm 3 mps 754 mmHg 70%
17:00 +31°C° 0.2 mm 3 mps 754 mmHg 71%
18:00 +30°C° 0 mm 2 mps 754 mmHg 77%
19:00 +28°C° 0 mm 2 mps 755 mmHg 83%
20:00 +27°C° 0 mm 2 mps 755 mmHg 88%
21:00 +26°C° 0 mm 2 mps 756 mmHg 90%
22:00 +26°C° 0 mm 2 mps 756 mmHg 92%
23:00 +25°C° 0 mm 1 mps 757 mmHg 94%

Tomorrow, 13 July, Monday

Time Temperature Precipitation Wind Pressure Humidity
00:00 +25°C° 0 mm 1 mps 756 mmHg 94%
01:00 +25°C° 0 mm 1 mps 756 mmHg 95%
02:00 +25°C° 0 mm 1 mps 756 mmHg 96%
03:00 +25°C° 0 mm 1 mps 756 mmHg 96%
04:00 +25°C° 0 mm 1 mps 756 mmHg 96%
05:00 +25°C° 0 mm 1 mps 756 mmHg 96%
06:00 +26°C° 0 mm 1 mps 756 mmHg 93%
07:00 +27°C° 0 mm 2 mps 757 mmHg 90%
08:00 +28°C° 0 mm 2 mps 757 mmHg 86%
09:00 +29°C° 0.1 mm 2 mps 757 mmHg 80%
10:00 +31°C° 0.1 mm 2 mps 757 mmHg 74%
11:00 +33°C° 0.1 mm 3 mps 757 mmHg 68%
12:00 +33°C° 0.6 mm 3 mps 756 mmHg 70%
13:00 +31°C° 0.6 mm 3 mps 756 mmHg 72%
14:00 +31°C° 0.6 mm 3 mps 755 mmHg 74%
15:00 +31°C° 0.2 mm 3 mps 755 mmHg 76%
16:00 +30°C° 0.2 mm 3 mps 755 mmHg 77%
17:00 +30°C° 0.2 mm 3 mps 754 mmHg 79%
18:00 +29°C° 0 mm 3 mps 755 mmHg 84%
19:00 +28°C° 0 mm 2 mps 755 mmHg 89%
20:00 +27°C° 0 mm 2 mps 756 mmHg 94%
21:00 +26°C° 0 mm 2 mps 756 mmHg 95%
22:00 +26°C° 0 mm 1 mps 757 mmHg 95%
23:00 +26°C° 0 mm 1 mps 757 mmHg 96%

Day after tomorrow, 14 July, Tuesday

Time Temperature Precipitation Wind Pressure Humidity
00:00 +26°C° 0.2 mm 1 mps 757 mmHg 97%
01:00 +26°C° 0.2 mm 1 mps 756 mmHg 97%
02:00 +25°C° 0.2 mm 1 mps 756 mmHg 98%
03:00 +25°C° 0.3 mm 1 mps 756 mmHg 98%
04:00 +25°C° 0.3 mm 1 mps 756 mmHg 98%
05:00 +25°C° 0.3 mm 1 mps 756 mmHg 98%
06:00 +26°C° 0.2 mm 1 mps 756 mmHg 94%
07:00 +27°C° 0.2 mm 1 mps 757 mmHg 91%
08:00 +28°C° 0.2 mm 2 mps 757 mmHg 88%
09:00 +29°C° 0.4 mm 2 mps 757 mmHg 83%
10:00 +30°C° 0.4 mm 2 mps 757 mmHg 77%
11:00 +31°C° 0.4 mm 3 mps 757 mmHg 72%
12:00 +33°C° 0.3 mm 3 mps 756 mmHg 70%
13:00 +33°C° 0.3 mm 3 mps 756 mmHg 67%
14:00 +34°C° 0.3 mm 3 mps 755 mmHg 65%
15:00 +33°C° 0.1 mm 3 mps 755 mmHg 67%
16:00 +33°C° 0.1 mm 3 mps 755 mmHg 68%
17:00 +31°C° 0.1 mm 3 mps 754 mmHg 70%
18:00 +30°C° 0 mm 2 mps 755 mmHg 77%
19:00 +28°C° 0 mm 2 mps 755 mmHg 85%
20:00 +26°C° 0 mm 2 mps 756 mmHg 92%
21:00 +26°C° 0 mm 1 mps 756 mmHg 94%
22:00 +26°C° 0 mm 1 mps 756 mmHg 95%
23:00 +25°C° 0 mm 1 mps 757 mmHg 97%

15 July, Wednesday

Time Temperature Precipitation Wind Pressure Humidity
00:00 +25°C° 0 mm 1 mps 756 mmHg 97%
01:00 +25°C° 0 mm 1 mps 756 mmHg 97%
02:00 +25°C° 0 mm 1 mps 755 mmHg 98%
03:00 +25°C° 0.1 mm 1 mps 755 mmHg 98%
04:00 +25°C° 0.1 mm 1 mps 755 mmHg 98%
05:00 +25°C° 0.1 mm 1 mps 755 mmHg 98%
06:00 +26°C° 0.1 mm 1 mps 756 mmHg 95%
07:00 +26°C° 0.1 mm 1 mps 756 mmHg 92%
08:00 +27°C° 0.1 mm 1 mps 756 mmHg 90%
09:00 +29°C° 0.2 mm 2 mps 756 mmHg 82%
10:00 +30°C° 0.2 mm 2 mps 756 mmHg 74%
11:00 +32°C° 0.2 mm 2 mps 756 mmHg 66%
12:00 +32°C° 0.1 mm 2 mps 756 mmHg 63%
13:00 +34°C° 0.1 mm 2 mps 755 mmHg 60%
14:00 +35°C° 0.1 mm 2 mps 754 mmHg 57%
15:00 +34°C° 0.4 mm 2 mps 754 mmHg 61%
16:00 +32°C° 0.4 mm 2 mps 754 mmHg 65%
17:00 +32°C° 0.4 mm 2 mps 753 mmHg 69%
18:00 +30°C° 0.3 mm 2 mps 754 mmHg 76%
19:00 +28°C° 0.3 mm 2 mps 754 mmHg 83%
20:00 +26°C° 0.3 mm 2 mps 755 mmHg 90%
21:00 +26°C° 0.1 mm 2 mps 755 mmHg 91%
22:00 +25°C° 0.1 mm 2 mps 756 mmHg 93%
23:00 +25°C° 0.1 mm 1 mps 756 mmHg 95%

16 July, Thursday

Time Temperature Precipitation Wind Pressure Humidity
00:00 +25°C° 0.1 mm 1 mps 756 mmHg 96%
01:00 +25°C° 0.1 mm 1 mps 755 mmHg 97%
02:00 +24°C° 0.1 mm 1 mps 755 mmHg 98%
03:00 +24°C° 0 mm 1 mps 755 mmHg 98%
04:00 +24°C° 0 mm 1 mps 755 mmHg 98%
05:00 +24°C° 0 mm 1 mps 755 mmHg 98%
06:00 +25°C° 0 mm 1 mps 756 mmHg 95%
07:00 +26°C° 0 mm 1 mps 756 mmHg 92%
08:00 +27°C° 0 mm 1 mps 757 mmHg 89%
09:00 +29°C° 0.2 mm 1 mps 757 mmHg 80%
10:00 +31°C° 0.2 mm 2 mps 757 mmHg 71%
11:00 +32°C° 0.2 mm 2 mps 757 mmHg 63%
12:00 +32°C° 0.4 mm 2 mps 756 mmHg 64%
13:00 +32°C° 0.4 mm 2 mps 755 mmHg 65%
14:00 +33°C° 0.4 mm 3 mps 755 mmHg 65%
15:00 +33°C° 0.6 mm 3 mps 754 mmHg 70%
16:00 +31°C° 0.6 mm 3 mps 754 mmHg 75%
17:00 +30°C° 0.6 mm 3 mps 754 mmHg 79%
18:00 +29°C° 0.1 mm 2 mps 754 mmHg 83%
19:00 +27°C° 0.1 mm 2 mps 755 mmHg 88%
20:00 +26°C° 0.1 mm 2 mps 755 mmHg 92%
21:00 +26°C° 0 mm 2 mps 756 mmHg 93%
22:00 +25°C° 0 mm 1 mps 756 mmHg 94%
23:00 +25°C° 0 mm 1 mps 757 mmHg 95%

17 July, Friday

Time Temperature Precipitation Wind Pressure Humidity
00:00 +25°C° 0 mm 1 mps 756 mmHg 96%
01:00 +25°C° 0 mm 1 mps 756 mmHg 97%
02:00 +25°C° 0 mm 1 mps 755 mmHg 97%
03:00 +24°C° 0 mm 1 mps 755 mmHg 98%
04:00 +24°C° 0 mm 1 mps 756 mmHg 98%
05:00 +24°C° 0 mm 1 mps 756 mmHg 98%
06:00 +25°C° 0 mm 1 mps 756 mmHg 94%
07:00 +26°C° 0 mm 1 mps 756 mmHg 90%
08:00 +28°C° 0 mm 1 mps 757 mmHg 87%
09:00 +29°C° 0 mm 1 mps 757 mmHg 79%
10:00 +30°C° 0 mm 1 mps 757 mmHg 71%
11:00 +32°C° 0 mm 2 mps 757 mmHg 63%
12:00 +34°C° 0 mm 2 mps 756 mmHg 59%
13:00 +35°C° 0 mm 2 mps 755 mmHg 55%
14:00 +35°C° 0 mm 2 mps 754 mmHg 51%
15:00 +35°C° 0.1 mm 2 mps 754 mmHg 56%
16:00 +34°C° 0.1 mm 3 mps 754 mmHg 61%
17:00 +33°C° 0.1 mm 3 mps 753 mmHg 66%
18:00 +30°C° 0 mm 3 mps 754 mmHg 71%
19:00 +29°C° 0 mm 2 mps 754 mmHg 76%
20:00 +27°C° 0 mm 2 mps 755 mmHg 81%
21:00 +26°C° 0 mm 2 mps 755 mmHg 84%
22:00 +26°C° 0 mm 1 mps 756 mmHg 88%
23:00 +25°C° 0 mm 1 mps 756 mmHg 91%
Show more